Wind_Speed
27 28 29 28 27 28 29 30 31 31 32 32 33 34 35 35 35 36 36 37 36 35 36 34 32 33 34 33 34 36 37 38 38 38 38 39 41 42 45 46 49 52 54 55 55 55 57 60 62 65 68 72 74 75 76 76 76 76 76 78 78 77 76 73 71 67 62 55 48 43 39 38 38 38 38 37 37 36 35 34 33 32 31 31 30 31
26 27 29 29 29 29 30 31 32 32 33 33 33 34 35 36 36 37 38 37 37 36 36 35 33 34 35 35 36 37 38 38 38 38 39 41 42 44 46 48 51 54 55 55 55 56 57 60 63 66 69 72 75 76 76 77 77 76 77 78 79 77 76 74 72 68 63 56 50 44 40 39 39 38 38 38 37 37 36 35 34 34 33 32 32 31
24 28 30 30 30 30 31 32 32 34 35 34 34 34 35 37 37 38 39 38 37 36 36 36 34 36 37 36 37 38 38 38 38 39 40 42 43 44 48 50 52 54 55 56 56 56 58 61 64 67 69 72 74 76 77 77 77 77 78 79 79 78 76 74 72 68 63 57 50 45 42 41 40 40 39 39 39 37 36 35 35 34 34 33 33 33
26 30 30 29 30 31 32 32 33 35 36 35 35 36 37 38 38 38 38 38 38 37 37 37 36 37 38 38 38 38 37 38 39 40 41 42 44 47 50 52 53 54 55 56 57 57 60 63 65 67 70 72 74 76 77 77 77 78 78 79 79 78 77 75 72 69 64 57 51 46 43 42 41 41 40 39 39 38 36 35 34 33 32 33 33 33
27 30 29 29 30 31 32 33 34 36 36 36 36 37 38 38 39 39 38 38 38 38 38 38 38 39 40 40 39 39 39 41 42 43 44 45 47 50 51 52 53 55 56 58 58 59 61 64 66 68 70 72 75 77 77 78 78 78 79 80 80 79 77 76 73 69 65 59 52 46 43 41 40 39 38 36 35 35 34 34 33 33 32 31 32 32
27 29 29 29 29 30 31 33 35 36 36 37 37 38 38 39 39 39 39 38 38 38 39 41 40 41 42 41 40 41 42 44 45 46 46 48 50 51 51 52 53 56 58 59 60 61 62 65 66 68 70 73 76 77 78 78 78 79 79 80 80 79 78 76 74 71 66 61 54 47 43 40 39 38 37 35 33 33 33 33 33 33 33 33 32 33
27 29 29 29 29 30 32 34 36 37 37 38 38 38 39 39 39 40 40 40 41 41 42 43 43 43 43 42 42 44 45 47 47 48 49 50 51 51 51 53 55 57 59 60 61 62 63 65 67 68 71 75 77 77 78 79 78 79 80 81 80 80 78 76 75 71 67 62 56 50 46 42 40 39 38 37 35 34 33 33 33 34 34 34 34 34
27 29 29 30 30 31 33 35 37 37 37 38 38 38 39 39 40 41 42 42 43 43 44 44 44 44 44 44 44 46 47 48 49 50 51 51 51 51 52 54 56 58 60 61 62 63 63 65 67 70 73 75 77 78 79 79 78 79 80 81 81 80 79 77 75 72 68 64 58 52 47 43 40 39 39 38 36 35 35 34 35 35 34 35 35 35
27 28 29 29 30 33 35 36 37 37 37 38 38 38 39 40 41 43 43 44 43 44 44 45 45 44 44 45 46 47 49 50 50 50 51 51 51 51 53 55 57 59 61 62 63 63 64 66 69 71 74 76 77 78 79 78 78 79 80 81 81 81 79 77 75 72 68 64 59 53 48 43 39 39 39 38 36 36 36 35 35 35 35 34 34 35
26 27 28 29 32 34 35 36 36 36 37 38 38 38 39 40 42 44 45 45 45 45 45 45 46 45 45 46 47 48 49 49 50 51 51 51 51 52 54 56 58 59 60 62 63 64 65 67 70 72 74 75 77 78 78 78 79 79 80 81 82 81 79 77 75 72 69 64 59 53 48 42 38 37 38 37 35 35 36 36 35 35 35 34 34 34
26 27 29 30 33 35 35 35 35 36 37 38 38 39 39 40 43 45 46 46 46 46 45 45 46 47 47 47 48 48 48 49 50 51 51 51 52 53 54 56 57 59 60 62 64 65 66 69 71 73 74 75 77 78 78 78 79 79 80 81 82 81 80 77 75 72 68 64 59 54 48 42 38 37 36 35 35 35 35 35 35 35 35 35 35 35
26 28 29 31 33 34 34 35 35 35 37 37 38 39 40 42 43 45 46 47 47 46 46 46 47 48 48 48 47 47 47 49 51 51 52 53 53 54 55 56 58 59 61 63 65 66 68 69 71 73 73 74 76 77 77 78 79 79 80 81 82 82 80 77 75 72 68 64 59 53 47 42 39 37 36 35 35 36 36 36 36 36 36 36 37 38
27 28 29 31 32 33 34 34 34 35 37 37 38 40 42 44 45 46 47 48 47 47 47 47 48 48 47 47 46 46 46 48 50 52 53 54 54 55 57 58 59 61 62 64 65 67 69 70 72 73 74 74 76 77 78 78 79 80 80 81 82 82 80 78 75 71 68 64 58 52 47 42 39 37 36 36 37 38 38 39 39 39 39 39 39 40
27 28 30 31 32 33 34 34 34 36 37 38 40 43 44 46 48 48 47 47 47 47 47 48 48 47 46 46 46 45 47 48 50 52 53 55 56 58 59 60 61 62 63 65 67 68 70 70 72 73 74 74 75 77 78 79 79 80 80 81 82 82 81 78 75 71 68 63 58 52 47 42 39 37 37 38 39 40 41 42 42 42 42 42 42 43
28 29 31 31 32 33 34 35 36 37 39 40 42 44 45 47 48 48 47 46 46 47 48 48 48 48 48 48 47 47 48 49 50 53 55 56 59 61 62 63 64 64 64 66 68 69 70 71 72 73 74 74 76 78 79 79 79 80 80 81 82 82 81 78 75 71 67 63 57 51 46 42 39 38 39 41 42 43 44 44 44 44 44 44 44 45
29 30 31 32 33 34 35 35 36 37 39 41 42 43 45 47 48 49 48 47 46 47 49 48 48 48 48 48 48 48 49 50 51 54 56 58 61 63 64 65 65 66 67 68 69 70 71 72 73 74 74 75 76 78 78 79 79 80 81 81 82 82 81 79 75 71 67 62 57 51 45 42 40 40 41 43 45 46 46 46 46 46 46 46 46 46
30 30 31 32 33 34 35 36 36 37 39 41 42 44 46 47 48 49 49 49 48 47 48 49 48 47 48 48 48 49 50 51 53 55 57 60 62 64 65 66 67 68 69 69 70 70 71 72 73 74 74 75 77 78 78 79 80 80 81 81 82 82 81 79 75 72 67 62 56 50 45 42 42 43 44 46 47 48 48 48 48 48 48 48 48 48
29 30 31 32 33 34 35 36 37 37 39 41 43 45 46 47 48 49 50 50 50 48 47 50 51 50 50 50 50 50 51 52 53 55 58 60 63 65 67 68 70 70 70 70 70 70 71 72 73 74 75 75 77 78 78 79 80 80 81 82 82 81 81 79 76 72 67 62 56 50 46 44 45 46 47 49 49 50 50 50 50 50 49 49 49 49
29 30 31 32 33 34 35 37 38 39 40 42 44 45 46 47 48 49 50 51 51 50 48 49 51 52 52 51 51 51 52 53 53 55 58 60 63 66 68 70 71 72 70 69 69 70 71 72 73 74 75 76 77 78 79 79 80 80 81 82 82 81 81 79 76 72 67 62 57 51 48 47 48 49 50 51 52 52 52 52 51 51 51 51 51 51
28 30 31 31 33 34 35 37 38 40 41 43 45 46 47 47 47 48 49 50 51 52 51 50 51 51 52 51 52 53 53 54 54 55 57 60 63 67 69 71 72 72 70 68 68 69 70 71 73 74 75 75 76 78 79 79 79 80 81 82 82 81 80 79 76 72 67 62 57 53 50 50 51 52 53 54 54 54 54 54 53 53 53 53 53 53
28 29 31 32 33 34 35 37 38 41 43 44 45 47 47 48 48 48 48 49 50 52 53 52 51 51 52 52 52 54 54 55 55 56 58 60 64 68 70 72 72 72 70 68 68 68 69 71 73 74 75 75 76 78 78 79 79 80 81 81 82 81 80 78 76 72 67 63 59 55 53 52 53 54 55 56 56 56 56 55 55 54 54 54 54 54
28 29 30 32 32 34 35 36 38 41 43 44 46 47 48 48 49 49 49 48 49 51 53 53 51 50 52 53 53 54 54 55 56 57 58 61 65 68 71 72 72 72 71 68 67 67 68 71 73 74 75 75 76 78 78 78 79 80 81 81 82 81 80 78 76 72 68 64 60 57 55 55 55 56 57 57 57 57 57 57 56 55 55 55 55 56
28 29 30 31 33 34 35 36 39 41 43 44 45 47 48 49 49 50 50 49 48 49 52 53 51 50 52 54 53 54 54 56 57 58 59 62 66 69 71 72 72 72 71 68 66 67 68 70 73 74 75 75 76 77 78 78 79 80 80 81 82 81 80 78 76 73 69 65 62 59 58 57 57 58 58 58 59 58 58 58 57 57 56 56 56 57
28 29 30 31 32 34 36 37 39 42 43 44 44 46 47 49 49 49 51 51 49 48 50 53 52 51 51 52 52 53 54 55 57 59 60 62 66 69 71 71 71 71 71 68 66 66 67 70 73 74 75 76 77 77 77 78 79 80 80 81 82 81 80 78 76 73 70 67 64 62 60 59 59 59 59 60 60 59 59 59 58 58 57 57 58 59
29 30 31 31 31 32 34 36 38 40 42 43 44 45 46 48 49 49 51 53 52 49 48 51 53 51 50 51 51 52 53 54 55 57 59 61 65 68 70 70 70 71 70 68 66 66 67 69 72 74 75 76 77 77 77 78 79 79 80 81 81 81 80 78 76 74 71 69 66 64 62 61 61 61 61 61 61 60 60 60 59 59 58 59 59 59
30 32 33 34 35 36 37 38 39 40 42 44 44 45 45 46 47 48 50 52 53 51 48 48 52 52 50 49 49 50 51 52 53 55 57 60 64 67 68 69 69 70 69 68 66 65 66 68 71 74 75 76 76 77 77 78 78 79 79 80 81 81 80 78 76 75 73 71 68 66 64 63 63 62 62 62 61 61 61 61 61 60 60 60 60 60
30 32 34 35 36 38 39 40 41 42 43 44 44 45 46 46 46 47 49 51 53 52 49 47 51 53 52 50 49 49 50 51 53 55 56 59 62 65 67 67 68 69 68 67 66 65 66 68 71 74 75 76 76 77 78 78 78 78 79 79 80 80 80 79 77 75 74 72 70 68 66 65 64 64 63 63 63 63 63 62 62 62 61 61 61 61
30 31 33 35 37 38 39 40 41 42 44 44 44 45 45 45 45 46 47 49 52 52 50 49 49 52 52 51 50 50 51 51 53 55 56 59 62 65 66 67 68 68 68 67 66 66 67 68 70 73 75 75 76 77 78 78 78 78 78 79 79 80 80 79 77 76 74 73 71 70 68 67 66 65 65 64 64 64 64 63 63 63 62 62 62 63
30 31 32 34 37 38 39 40 40 41 43 44 44 45 46 46 46 46 46 48 51 51 51 51 50 50 51 51 49 50 51 52 54 56 57 60 62 64 65 66 68 68 68 68 67 67 67 67 70 73 74 75 76 77 77 78 77 77 77 78 78 79 79 79 78 76 74 73 72 71 69 68 67 66 66 66 65 65 64 64 63 63 63 63 63 64
31 32 32 33 35 38 40 41 40 40 42 44 44 45 46 47 47 46 45 47 50 50 50 51 50 48 49 50 50 49 50 51 53 56 57 59 61 62 63 66 68 68 68 68 68 68 67 68 69 72 74 75 76 77 77 77 77 77 77 77 78 78 78 78 77 76 75 74 72 71 70 69 68 67 67 67 66 66 65 64 64 63 63 64 65 66
32 33 33 33 34 36 39 40 41 41 42 44 44 45 46 47 47 46 45 46 49 50 49 49 50 48 48 50 50 49 49 50 52 54 56 58 60 61 62 65 68 68 68 69 69 68 68 68 69 71 74 76 77 77 77 78 77 76 76 76 77 77 78 78 77 76 75 74 73 72 71 70 69 68 68 68 67 66 66 65 65 65 65 65 66 67
33 34 34 34 34 36 38 39 41 42 43 43 44 45 46 47 47 46 44 45 48 49 49 48 49 49 49 50 50 49 48 49 51 53 55 57 59 61 62 64 67 68 68 69 70 69 68 68 69 71 73 76 77 77 77 78 77 76 75 75 76 77 77 77 77 76 75 74 73 72 71 71 70 69 69 68 68 67 66 66 66 66 66 66 67 68
34 35 36 36 36 37 38 40 41 42 43 44 45 45 46 46 47 47 45 45 47 48 48 48 48 49 50 50 51 49 47 48 50 53 55 57 59 61 63 63 65 67 68 70 70 70 68 68 69 70 73 75 77 77 77 77 77 76 75 75 75 76 76 77 76 75 74 74 73 72 72 71 71 70 70 69 68 68 67 67 67 67 67 68 69 70
36 36 37 38 38 38 39 40 42 43 45 46 46 46 46 46 47 48 46 45 46 47 48 48 49 49 50 50 51 50 48 48 50 53 55 58 60 62 63 64 64 67 68 69 70 70 69 68 69 70 72 74 76 77 77 77 77 76 75 74 75 75 76 76 76 75 74 74 73 72 72 71 71 71 70 70 69 69 68 68 68 68 69 69 70 71
37 38 39 39 40 40 41 41 41 43 46 47 46 46 46 46 47 48 46 45 47 48 49 49 50 50 50 50 51 51 49 47 49 52 55 57 59 61 63 64 64 66 68 69 70 70 69 69 69 69 71 74 75 76 77 77 77 76 75 74 74 75 75 76 76 75 74 73 73 72 72 71 71 71 71 71 71 70 70 70 70 70 71 72 73 74
39 40 40 41 41 42 43 43 43 43 45 46 46 47 48 47 48 49 47 45 47 50 51 51 51 51 51 50 50 51 49 47 48 51 54 56 58 60 61 63 64 65 67 69 70 70 69 69 69 69 70 73 75 76 76 76 76 75 74 74 74 74 75 75 75 75 74 73 73 72 72 72 71 72 72 72 72 72 72 71 72 72 72 74 75 77
40 41 42 42 43 44 44 44 44 43 44 46 46 48 49 49 49 50 50 48 48 51 52 52 51 51 51 50 50 51 51 49 47 49 52 54 56 58 60 62 64 65 66 68 69 69 69 68 68 69 70 72 74 75 76 75 75 75 74 73 73 73 74 74 75 74 74 73 72 72 72 72 72 72 73 73 74 74 73 73 73 74 75 76 77 79
41 43 43 44 44 45 47 47 46 45 45 46 47 48 50 51 51 52 53 50 49 51 53 53 52 51 51 51 51 52 53 50 47 48 51 53 55 57 59 61 63 64 65 67 68 69 68 68 68 68 69 71 73 75 75 75 75 74 74 73 73 73 73 73 74 74 74 73 72 72 73 73 73 73 74 75 75 76 76 75 75 76 77 78 79 81
42 43 44 45 45 46 48 48 48 48 48 47 48 49 51 52 52 54 55 52 51 53 54 53 53 52 52 52 52 51 52 51 48 48 50 53 54 57 59 61 63 64 65 66 67 68 68 67 67 68 68 70 72 74 75 75 74 74 73 73 72 73 73 73 73 73 73 73 72 72 73 73 74 74 75 76 77 77 78 77 77 78 79 80 81 82
43 43 44 45 46 47 48 48 48 49 49 49 50 50 51 52 53 55 56 54 53 54 55 54 53 52 52 51 51 49 49 50 49 49 50 52 54 57 59 62 64 65 66 66 66 67 67 67 67 68 68 69 70 73 74 75 74 74 73 72 72 72 72 72 72 73 73 72 72 72 73 73 74 75 76 77 78 79 79 79 79 80 80 81 82 83
44 43 44 45 46 47 49 49 49 48 49 51 52 52 52 53 54 55 55 54 54 54 54 54 53 52 50 49 48 47 47 47 48 49 50 52 54 57 59 62 64 66 66 66 66 66 66 66 66 67 68 68 69 71 73 74 74 74 73 72 71 71 71 71 72 72 72 72 72 72 72 73 74 75 76 78 79 80 81 81 81 81 82 82 83 83
45 44 43 45 47 48 49 51 51 50 50 53 53 52 52 54 55 55 54 53 53 54 54 52 51 50 49 47 47 46 45 46 47 48 50 52 55 57 59 62 64 66 66 66 66 65 66 66 66 67 67 68 68 70 72 74 74 74 72 71 70 70 70 71 71 71 72 72 72 72 72 73 74 75 76 78 79 80 81 82 83 83 83 84 84 84
45 44 43 44 46 48 50 52 52 52 53 55 55 53 53 54 54 54 53 52 52 54 54 52 50 49 48 46 45 45 45 45 46 48 50 52 54 56 58 61 64 65 66 67 66 66 66 66 66 66 67 67 68 69 71 73 74 74 72 70 69 69 70 70 70 71 71 71 71 71 71 72 73 74 76 77 79 80 82 83 84 84 85 85 86 85
44 42 42 43 45 48 51 51 51 52 54 57 56 54 54 55 55 54 53 52 52 53 54 52 49 48 47 46 44 44 45 45 46 47 49 52 54 56 58 60 63 65 66 67 67 66 66 66 66 66 66 67 67 68 70 72 74 74 72 70 69 68 69 69 69 70 70 71 71 71 71 71 72 73 75 77 78 80 82 83 85 86 86 87 87 86
43 41 42 43 44 47 49 50 51 52 54 57 57 54 54 54 55 54 54 53 53 54 54 52 49 47 46 46 44 44 45 46 46 47 49 51 53 56 57 59 61 64 65 66 67 66 66 65 65 65 66 66 67 67 69 72 73 73 72 70 68 68 68 68 69 69 70 70 70 70 70 71 72 73 75 76 77 79 81 83 85 86 87 88 88 87
43 42 42 43 45 46 47 48 52 54 54 56 56 55 54 55 54 54 54 53 53 54 53 51 48 46 45 45 45 44 45 46 47 47 48 50 52 55 57 58 60 62 64 65 66 66 66 65 65 65 65 65 66 67 68 71 72 73 72 70 68 67 67 68 68 68 69 70 70 70 70 70 71 73 75 76 78 79 81 82 84 86 87 88 89 88
44 43 43 44 46 47 46 48 52 55 56 57 56 55 55 55 54 53 54 54 54 53 50 48 46 44 44 44 45 45 45 46 47 48 48 49 51 54 56 57 59 61 63 65 66 66 67 66 65 65 64 64 66 67 68 69 71 72 72 70 68 67 67 67 67 67 68 69 70 70 70 70 70 72 73 76 78 79 81 82 84 85 87 88 89 89
44 44 43 44 46 47 47 49 53 55 56 56 56 55 55 55 54 53 53 53 53 51 47 44 43 43 43 44 46 46 46 47 48 48 48 49 50 52 55 57 58 60 62 64 65 66 67 66 65 64 64 63 65 66 67 68 70 71 72 70 68 67 66 66 66 66 67 68 69 69 69 69 70 71 72 74 77 78 80 81 83 85 87 88 90 90
42 42 42 43 45 45 47 51 54 57 56 54 54 55 56 56 55 54 53 53 53 50 47 44 43 44 45 45 45 46 46 47 48 48 48 49 50 51 53 55 58 59 61 63 65 66 67 67 66 64 63 62 64 66 66 67 68 70 71 70 67 66 65 64 64 65 66 67 68 68 68 69 69 70 71 73 75 78 79 81 82 84 87 89 90 91
38 41 42 42 44 46 48 51 55 59 58 54 53 56 57 56 56 55 54 54 54 52 50 47 45 45 45 44 44 45 46 47 48 48 48 49 50 50 52 54 57 59 61 63 65 66 67 67 66 65 62 61 63 65 66 66 67 68 70 69 67 65 65 64 63 64 64 65 66 67 67 68 68 69 70 72 74 76 78 81 82 84 86 88 90 91
37 41 42 42 44 48 49 50 54 58 57 55 55 56 56 56 57 55 54 55 55 53 51 49 47 46 44 43 44 45 46 46 47 48 49 49 50 50 51 53 56 58 60 62 65 66 67 67 66 64 63 61 62 64 65 66 66 67 69 69 66 65 64 63 62 62 63 64 65 65 66 66 67 68 69 71 72 74 76 79 81 83 84 86 88 89
Wind_Direction
54 52 48 43 38 37 36 34 31 28 27 25 23 22 23 24 24 23 24 23 22 20 18 16 11 7 5 2 0 359 358 358 356 355 355 354 353 353 353 352 350 349 349 346 345 346 348 349 352 353 353 352 352 352 352 351 350 349 348 347 346 344 343 341 341 341 341 339 336 332 328 325 325 325 324 324 323 321 319 316 312 309 306 303 300 298
53 51 45 41 37 36 35 33 31 28 27 26 24 23 22 23 23 22 22 22 21 19 18 17 13 9 8 6 4 3 0 358 357 357 357 356 354 354 353 354 353 351 348 346 346 349 350 352 354 355 354 353 353 353 353 352 351 350 349 348 347 345 344 343 342 343 343 341 338 335 333 330 329 328 327 325 324 323 321 318 316 312 308 305 302 300
51 48 42 39 36 34 34 32 30 28 27 25 23 22 22 22 22 21 20 19 19 19 17 16 14 11 10 8 7 5 1 359 359 360 359 357 354 354 355 356 354 351 348 347 348 351 352 354 356 356 355 354 354 354 354 353 352 351 350 349 347 346 345 344 343 343 344 342 340 338 336 334 333 331 330 328 326 325 323 320 317 313 310 307 304 302
44 43 40 36 34 33 32 30 29 28 25 23 22 20 20 20 20 21 19 17 17 17 17 16 14 13 12 11 9 6 2 1 2 2 0 357 355 356 358 357 354 350 348 348 350 353 354 356 357 356 356 355 355 355 355 354 353 352 351 350 348 347 346 345 344 344 344 344 341 339 338 337 335 333 331 329 327 325 324 322 319 316 312 309 306 304
40 40 38 34 33 31 30 29 28 27 24 22 20 19 18 17 18 19 18 17 16 16 16 16 14 14 14 13 10 7 5 5 5 3 0 357 357 359 359 356 353 351 349 349 352 354 356 357 357 356 356 356 356 356 355 355 354 353 352 351 349 348 347 346 345 345 345 344 342 339 337 336 334 331 328 325 322 320 320 321 320 318 315 312 309 307
37 38 35 33 31 30 29 29 28 25 22 21 19 18 17 15 16 16 15 15 15 15 16 15 14 14 14 13 10 8 8 7 6 3 1 359 359 359 357 355 353 352 351 351 354 356 357 357 357 357 357 357 357 357 356 355 355 354 353 352 350 349 348 347 346 346 346 345 343 339 337 335 334 332 329 325 322 319 318 318 318 318 317 314 311 308
34 34 32 29 27 28 28 28 27 23 20 20 18 16 15 13 13 14 13 13 14 15 15 15 14 14 14 12 10 10 9 8 6 3 1 1 0 358 355 355 355 354 353 353 355 356 357 358 358 358 358 359 358 358 357 356 355 354 353 352 351 350 349 348 347 347 347 346 343 341 338 336 336 336 334 331 328 326 324 322 321 319 317 314 312 310
31 31 29 26 25 27 27 26 25 21 18 18 16 14 13 12 11 12 12 13 14 14 14 14 14 13 12 11 10 10 9 7 6 3 2 2 360 357 356 356 356 355 354 354 356 357 357 358 359 359 360 360 359 359 358 357 356 355 354 353 352 351 350 349 348 348 348 347 345 342 340 338 337 337 337 335 333 331 329 327 325 322 318 315 312 310
29 27 26 23 23 26 25 24 22 18 16 16 14 13 12 10 10 10 11 13 14 15 14 13 13 14 12 11 10 9 8 7 5 3 3 2 359 357 357 357 357 356 355 355 356 357 358 359 360 0 0 0 360 360 359 358 357 356 355 354 353 352 351 350 350 349 348 348 346 344 342 340 339 338 338 337 335 334 332 330 327 324 320 316 313 310
26 24 23 21 21 24 23 22 20 15 14 14 12 12 11 9 9 9 10 12 12 14 14 13 13 14 13 11 10 8 7 6 4 4 3 1 360 359 358 357 357 356 356 356 357 358 358 359 0 1 1 1 1 0 359 358 357 356 356 355 354 353 352 351 351 350 349 349 347 345 343 341 339 338 338 338 337 335 333 330 328 325 321 317 314 312
23 22 20 19 20 22 20 20 18 14 13 12 10 10 9 9 10 9 9 10 11 12 14 14 13 14 14 12 9 7 5 4 4 5 3 1 1 360 358 357 357 357 357 357 358 358 359 0 1 1 1 1 1 1 360 359 358 357 356 356 355 354 353 352 352 351 350 350 348 346 344 342 340 339 340 339 338 336 333 331 329 326 324 321 318 316
20 19 18 18 19 19 18 18 15 12 12 10 8 8 8 9 10 9 8 8 10 12 13 14 15 14 13 11 8 5 3 3 4 4 3 2 2 0 359 358 357 358 358 358 358 359 360 1 1 1 1 1 1 1 0 359 358 358 357 356 356 355 354 353 353 352 351 351 350 347 345 344 342 342 342 341 339 337 335 333 332 330 327 325 322 320
18 18 18 18 18 16 16 15 12 11 10 8 7 6 6 7 8 8 9 9 9 11 12 13 15 15 12 9 7 4 2 3 4 4 3 2 1 1 360 359 358 359 359 358 359 360 1 1 2 1 1 1 2 2 1 360 359 358 358 357 356 356 355 354 354 353 352 352 351 349 346 345 345 344 344 342 341 338 337 335 334 332 330 328 325 323
16 16 17 17 16 15 14 13 10 9 8 6 5 5 5 5 6 7 9 9 8 9 11 12 13 14 11 8 7 3 2 4 4 4 4 3 2 2 1 360 359 359 359 358 360 1 1 2 2 1 1 2 2 2 1 0 360 359 358 357 357 356 356 356 355 354 353 352 352 350 348 347 347 347 345 343 342 339 338 337 336 334 332 330 328 326
13 15 16 15 14 13 12 11 9 7 5 4 4 3 4 4 5 5 7 9 8 8 10 11 11 11 10 8 6 3 3 4 4 4 4 3 3 3 2 1 0 360 359 359 0 1 1 2 2 1 1 2 2 2 2 1 0 359 358 358 358 357 357 356 356 355 354 353 353 351 350 349 348 348 346 344 342 340 339 338 337 335 334 332 330 328
12 14 14 13 12 10 9 9 7 4 3 2 1 2 3 4 3 3 4 6 7 7 8 9 10 10 9 7 4 3 3 3 3 4 4 4 3 3 1 1 0 360 359 360 1 1 1 2 2 1 1 2 2 2 2 1 1 360 359 359 358 358 358 357 357 356 355 354 354 353 351 350 349 348 347 345 343 341 340 339 338 336 335 333 332 330
11 12 12 10 9 8 7 7 5 3 1 0 360 0 2 2 1 1 1 2 5 8 7 5 7 9 8 7 5 3 4 3 3 3 3 3 3 2 0 0 0 0 360 1 1 1 1 2 1 1 1 2 2 2 2 2 1 0 360 359 359 358 358 358 358 357 356 355 354 354 353 351 350 348 347 345 344 342 341 340 339 338 336 335 333 332
10 10 11 9 6 6 5 4 2 1 359 359 359 360 360 360 359 359 360 359 1 6 7 3 4 7 7 6 5 4 4 4 3 3 3 2 1 0 360 360 0 0 0 0 1 1 1 1 1 1 1 2 3 3 2 2 1 1 0 360 359 359 359 359 358 358 357 356 355 355 353 352 350 349 347 346 345 343 342 341 340 339 337 336 335 334
9 7 8 7 4 3 3 1 359 358 357 357 358 358 358 358 358 358 358 357 357 2 6 5 4 5 6 5 5 4 3 3 3 2 2 1 0 359 359 360 1 1 0 360 0 1 1 1 1 1 1 2 3 3 2 2 2 1 1 0 360 360 359 359 359 359 358 357 356 355 353 352 350 349 348 347 345 344 343 342 341 340 338 337 337 336
7 5 5 4 3 1 360 358 357 356 356 356 356 356 356 357 357 358 357 356 356 358 2 5 5 4 4 3 3 4 3 2 2 2 1 0 359 359 360 0 1 1 0 360 0 1 0 0 1 1 2 2 3 3 2 2 2 2 1 1 0 360 360 360 360 359 359 358 356 355 353 352 351 350 348 347 346 345 344 343 342 341 340 339 338 338
5 4 2 2 1 359 358 356 354 354 354 354 354 354 355 356 356 356 356 356 356 356 358 3 5 3 2 2 3 3 2 0 1 1 0 359 359 359 0 0 1 0 360 360 0 0 360 360 1 1 2 2 2 3 3 2 2 2 2 1 0 0 0 0 0 360 359 358 357 355 354 352 351 350 349 347 346 345 344 344 343 342 341 340 340 339
2 2 0 359 358 357 356 354 352 353 353 353 352 352 353 354 354 354 354 355 356 356 355 360 4 1 360 2 2 2 1 359 359 359 359 359 359 360 0 360 360 360 359 360 360 0 360 360 1 2 2 2 2 3 2 2 2 2 2 1 1 1 1 1 1 0 360 359 357 355 354 352 351 350 349 348 347 346 345 345 344 344 343 342 342 341
359 358 358 357 356 354 353 353 352 352 352 351 351 351 351 352 353 352 352 353 356 356 353 356 1 1 359 1 1 360 359 358 357 358 357 358 359 360 360 359 359 359 359 359 359 360 0 360 1 1 2 2 2 2 2 2 2 2 2 2 1 1 1 1 1 1 0 359 358 356 354 353 352 350 349 348 347 347 346 346 346 345 345 344 344 343
355 355 354 355 355 353 351 351 351 350 350 350 350 350 350 351 351 351 350 350 353 356 353 353 358 0 360 0 359 358 358 357 356 356 357 358 359 359 359 358 358 358 358 358 359 360 0 0 1 1 2 2 2 2 2 2 2 3 2 2 1 1 2 2 2 2 1 360 359 357 355 353 352 351 350 349 348 348 348 347 347 347 346 346 345 344
351 350 349 350 351 350 348 349 350 348 348 348 348 349 350 350 349 348 348 348 349 353 354 352 355 359 0 360 358 357 357 356 355 355 356 358 359 359 358 358 358 358 358 358 359 359 360 0 1 1 1 2 2 2 2 2 2 3 2 2 2 2 2 2 2 2 1 0 359 357 355 353 352 352 351 350 350 349 349 349 348 348 347 347 346 345
348 347 346 346 346 348 347 347 348 348 347 347 347 348 349 349 347 346 347 346 346 350 352 351 351 355 358 358 358 357 357 356 355 355 356 358 359 359 358 357 357 357 357 358 358 359 360 1 1 1 1 2 2 2 2 2 2 2 3 2 2 2 2 2 3 2 2 1 359 358 356 355 353 353 352 351 351 350 350 350 349 349 348 347 347 346
345 344 345 344 344 346 346 346 346 346 346 346 346 346 347 347 346 346 346 344 343 345 350 350 350 352 355 357 357 357 356 355 355 356 357 358 359 358 358 358 357 357 358 358 358 359 360 1 1 1 1 2 2 2 2 2 2 2 3 2 2 2 2 3 3 3 2 1 360 358 357 356 355 354 353 352 352 351 351 351 350 350 349 348 347 347
341 342 343 343 342 343 344 344 344 345 344 344 345 345 345 344 344 346 345 343 340 342 346 350 350 350 352 355 357 356 355 355 355 356 357 357 358 358 358 357 357 357 358 358 358 359 360 1 1 1 1 2 1 1 2 2 2 2 3 2 2 2 3 3 3 3 3 2 1 359 358 357 356 355 355 354 353 352 352 351 351 350 349 348 348 347
337 338 340 342 341 340 341 342 343 344 343 343 343 344 343 342 343 345 345 342 338 339 344 348 350 350 349 352 356 355 354 355 355 355 356 356 357 357 357 357 357 357 357 358 358 359 359 1 1 1 2 2 1 1 1 2 2 2 3 2 2 2 3 3 4 4 3 3 2 0 359 358 357 357 356 355 354 353 352 352 351 350 349 348 348 347
334 335 336 338 340 339 338 340 342 342 342 341 342 342 341 341 342 343 343 340 336 339 343 345 348 349 348 349 354 355 354 354 354 355 355 355 356 356 356 356 356 356 357 357 358 358 359 0 1 1 2 2 1 1 1 2 2 2 3 2 2 2 3 3 4 4 4 4 3 1 360 359 358 358 357 356 355 354 353 352 351 350 350 349 348 347
331 332 332 334 337 336 335 337 338 340 340 340 340 340 340 341 341 340 341 338 335 338 341 342 345 347 347 348 352 354 354 354 354 354 354 354 355 355 355 355 355 355 356 356 357 357 358 360 1 1 1 2 1 1 1 2 2 2 3 2 2 3 3 3 4 5 5 5 4 3 1 360 359 358 357 356 355 354 353 352 351 351 350 349 348 347
328 329 329 330 333 333 332 334 335 337 338 337 337 338 339 340 338 337 339 338 335 337 340 341 343 345 346 347 350 353 355 353 353 354 354 354 354 354 353 353 353 354 355 355 356 357 357 359 0 1 1 1 1 1 1 1 2 2 2 2 2 2 3 4 4 5 6 6 5 4 3 1 0 359 358 357 356 355 353 352 352 351 350 349 348 347
325 326 326 327 330 330 330 332 333 334 334 334 335 337 337 337 335 335 338 337 335 336 338 340 342 343 345 346 347 351 355 353 352 353 353 353 354 353 352 352 352 353 354 355 355 356 357 358 360 0 1 1 1 1 1 1 1 2 2 2 2 2 3 4 5 6 6 6 6 6 4 3 2 1 360 358 356 355 354 353 352 351 350 349 348 348
323 324 324 324 326 328 329 330 331 331 331 332 335 335 335 334 332 333 337 336 334 335 336 338 341 342 343 345 346 350 355 355 352 352 353 353 353 352 351 351 352 353 353 354 354 355 356 357 359 360 0 1 0 0 1 1 1 2 2 2 2 2 3 4 5 6 7 7 7 7 6 5 3 2 1 359 358 356 355 354 353 351 350 349 349 348
321 322 322 323 324 325 326 327 329 330 330 330 332 332 331 331 330 331 335 335 333 334 335 337 341 341 342 345 346 349 354 356 353 352 352 353 352 351 351 351 352 352 352 353 354 354 355 356 357 359 360 0 0 0 1 1 1 1 2 1 1 2 3 4 5 6 7 7 8 8 7 6 5 4 2 1 359 357 356 355 354 352 351 350 349 348
319 320 321 322 322 323 324 325 328 329 328 327 328 328 327 328 327 329 333 334 332 332 334 337 341 341 341 344 346 347 352 355 353 351 352 352 351 350 350 350 351 351 351 352 353 353 354 355 356 358 359 359 360 360 0 0 1 1 2 1 1 2 3 3 4 6 7 8 8 8 8 7 6 5 4 2 1 359 357 356 355 353 352 351 350 349
318 318 320 321 320 321 321 323 325 326 325 324 325 325 325 326 326 327 331 333 333 331 333 337 340 340 341 344 345 346 348 353 353 351 351 351 351 350 350 350 350 349 350 351 352 352 353 354 355 356 358 359 359 360 360 0 0 1 1 1 1 1 2 3 4 5 7 8 9 9 9 9 7 6 5 4 2 1 359 358 356 354 353 352 351 351
316 317 319 320 320 319 320 321 322 323 322 323 324 323 323 324 325 327 330 333 333 331 332 336 339 340 341 343 344 345 346 350 353 351 350 351 351 351 351 350 349 348 349 350 351 351 352 353 354 356 357 358 359 359 359 360 0 1 1 1 0 0 1 2 4 5 7 8 9 9 10 9 8 7 6 5 3 2 1 359 357 356 354 353 353 352
314 316 317 317 318 318 318 319 320 321 321 321 322 322 322 323 325 327 329 332 333 331 332 337 339 341 342 342 344 344 344 347 351 351 350 350 351 351 351 350 349 348 348 349 350 350 351 352 353 355 356 357 358 358 359 359 360 1 1 0 0 0 1 2 3 5 6 8 9 10 10 10 9 8 6 5 4 3 2 1 359 358 356 355 354 354
311 313 314 314 315 315 315 316 317 318 319 319 320 321 322 324 326 327 329 332 333 332 334 338 340 340 341 342 343 344 344 347 350 351 350 350 351 351 351 350 350 349 349 349 349 349 350 351 353 353 355 357 357 358 358 359 359 0 1 0 360 360 0 1 3 4 6 7 9 10 11 11 10 9 7 6 5 4 3 2 1 359 358 356 356 355
308 310 311 311 311 312 313 313 314 316 317 317 318 321 323 325 326 327 329 332 333 333 335 339 339 340 341 342 343 344 345 347 349 350 349 349 350 351 351 350 350 349 350 349 349 349 350 351 352 352 354 356 357 357 357 358 359 359 0 0 360 360 360 0 2 4 6 7 8 10 11 11 10 9 8 7 6 4 3 3 2 1 360 358 357 357
306 307 308 308 309 310 310 310 312 314 315 316 318 321 324 324 325 326 329 332 332 332 335 338 339 339 341 342 343 344 345 346 348 348 348 348 349 350 350 350 349 349 350 350 349 348 349 350 351 352 353 355 356 356 357 357 358 359 360 360 360 359 359 360 1 3 5 7 8 9 10 11 11 10 9 8 6 5 4 4 3 2 1 360 359 359
304 306 307 307 307 308 308 310 312 314 315 315 317 321 322 323 323 325 327 330 331 331 333 337 339 338 339 342 343 344 344 346 347 347 347 348 349 349 349 349 349 349 350 350 349 348 348 349 350 351 352 354 355 355 356 357 358 358 359 359 359 359 359 359 0 2 5 6 8 9 10 10 10 10 9 8 7 6 5 5 4 3 3 2 1 0
302 305 306 306 306 306 308 310 311 312 312 312 315 319 321 321 321 323 325 327 328 329 331 334 337 337 338 340 343 343 343 344 345 346 346 347 347 348 348 348 348 348 349 349 349 348 347 348 349 350 351 353 354 355 355 356 357 358 358 359 359 359 359 359 360 2 4 6 8 9 9 9 9 9 9 8 8 7 6 6 6 5 4 3 3 2
303 306 305 304 304 304 306 308 307 307 308 309 312 317 318 318 319 321 323 325 326 327 329 331 333 335 336 338 341 343 342 342 343 344 344 345 346 347 347 348 347 347 348 348 349 348 347 347 349 349 350 351 353 354 354 355 356 357 358 358 358 358 358 359 359 1 3 5 7 9 9 9 8 8 7 7 8 7 7 6 7 6 6 5 4 4
304 306 304 302 300 301 305 306 304 305 307 308 310 314 315 316 318 320 321 323 324 325 327 329 331 333 335 337 339 341 341 340 341 341 341 343 345 345 346 347 346 345 346 347 348 348 347 347 347 348 349 350 352 353 353 354 355 356 357 358 358 357 358 358 359 360 2 4 7 8 9 9 8 7 6 6 7 7 7 7 7 7 7 7 6 5
303 304 303 300 298 301 304 304 302 303 305 306 309 312 312 313 316 318 319 320 321 323 325 328 330 332 334 335 337 339 339 338 338 339 338 339 342 343 344 345 345 344 344 346 347 348 347 346 346 347 348 349 351 352 352 352 354 356 357 357 357 357 357 358 358 359 1 4 6 8 9 9 8 7 6 6 6 6 6 6 7 7 8 8 8 7
303 303 300 297 298 302 304 302 300 301 303 306 308 310 310 312 314 315 317 318 319 321 325 328 329 330 332 333 334 336 337 336 336 336 336 336 339 341 342 343 344 343 343 344 346 347 347 346 346 346 346 348 350 351 351 351 353 355 356 357 357 357 357 357 358 359 0 3 5 7 8 9 9 8 7 6 5 6 6 6 6 7 7 8 9 9
304 302 298 296 299 303 303 300 299 299 302 306 307 307 309 310 312 313 315 315 317 319 322 325 327 328 329 331 332 333 334 333 333 334 334 334 336 339 340 341 342 342 342 343 344 345 346 346 345 345 345 347 350 351 350 349 351 353 355 356 356 356 356 356 357 358 359 2 4 6 8 8 8 8 8 6 5 5 6 6 6 7 7 8 9 9
302 298 296 297 300 302 301 299 298 300 304 307 307 306 308 309 310 311 312 313 315 317 319 322 324 326 327 329 329 330 331 331 331 332 333 333 334 337 339 340 341 341 341 342 343 344 345 345 344 344 344 346 348 350 349 348 349 352 354 355 356 356 356 356 356 357 359 1 4 6 7 8 8 8 8 7 6 5 4 5 6 7 8 9 9 9
298 294 295 298 299 300 300 299 298 300 304 306 305 305 306 307 307 309 310 311 314 316 319 321 322 323 324 326 326 327 329 329 330 331 333 333 333 335 337 339 339 340 341 341 341 343 344 344 342 342 343 345 347 348 348 347 348 350 353 354 355 355 355 355 356 356 358 0 3 5 7 7 8 8 8 8 7 7 5 5 5 6 8 9 10 10
Height
5852 5850 5849 5850 5849 5847 5845 5843 5841 5839 5836 5834 5832 5829 5827 5824 5821 5818 5815 5812 5809 5806 5803 5799 5796 5793 5789 5786 5781 5777 5772 5768 5765 5762 5758 5754 5750 5746 5742 5738 5734 5728 5723 5718 5712 5706 5699 5691 5684 5677 5670 5662 5653 5645 5636 5627 5617 5608 5598 5589 5578 5568 5558 5549 5541 5533 5526 5520 5515 5510 5505 5500 5495 5491 5486 5482 5479 5475 5472 5470 5467 5465 5462 5460 5459 5457
5853 5851 5851 5850 5849 5847 5845 5842 5841 5838 5836 5833 5832 5829 5827 5824 5820 5817 5814 5811 5808 5806 5803 5799 5796 5792 5788 5784 5779 5775 5771 5767 5764 5760 5756 5751 5747 5744 5740 5735 5730 5724 5720 5715 5709 5702 5695 5688 5681 5674 5666 5658 5650 5641 5632 5622 5612 5603 5593 5584 5573 5563 5553 5544 5536 5528 5520 5514 5509 5504 5500 5495 5490 5486 5482 5479 5475 5472 5468 5465 5463 5460 5458 5456 5454 5452
5855 5852 5851 5850 5849 5847 5844 5842 5840 5838 5835 5833 5832 5829 5826 5823 5820 5817 5814 5811 5809 5806 5802 5799 5795 5791 5787 5783 5778 5774 5770 5767 5763 5758 5753 5749 5746 5742 5737 5732 5727 5722 5717 5712 5705 5699 5692 5685 5678 5670 5662 5654 5645 5636 5627 5618 5608 5599 5589 5579 5568 5558 5548 5539 5531 5523 5516 5510 5504 5499 5495 5491 5486 5482 5478 5474 5471 5467 5464 5461 5459 5456 5454 5451 5449 5447
5856 5853 5852 5851 5849 5847 5844 5843 5840 5837 5835 5833 5831 5828 5825 5823 5820 5817 5814 5811 5808 5805 5802 5798 5794 5791 5786 5782 5777 5773 5770 5765 5760 5756 5752 5748 5745 5739 5733 5728 5724 5720 5715 5708 5702 5695 5688 5681 5674 5666 5658 5650 5641 5632 5623 5614 5605 5595 5585 5574 5563 5554 5544 5536 5528 5520 5513 5506 5501 5496 5492 5487 5483 5479 5475 5471 5468 5464 5461 5458 5455 5453 5450 5448 5445 5443
5856 5853 5853 5852 5850 5847 5845 5843 5839 5836 5834 5833 5830 5828 5825 5822 5819 5817 5815 5812 5809 5805 5802 5798 5794 5789 5785 5780 5775 5772 5767 5762 5757 5753 5749 5746 5741 5734 5730 5727 5723 5718 5711 5705 5698 5691 5684 5677 5670 5662 5654 5645 5637 5628 5619 5610 5600 5590 5579 5569 5559 5550 5541 5532 5524 5517 5510 5504 5499 5494 5490 5486 5482 5477 5473 5470 5466 5463 5459 5456 5452 5449 5447 5444 5441 5439
5856 5854 5853 5852 5850 5848 5845 5842 5839 5836 5835 5832 5830 5827 5824 5822 5819 5817 5814 5811 5808 5804 5800 5796 5791 5787 5782 5778 5774 5769 5764 5758 5754 5750 5747 5743 5737 5732 5729 5726 5721 5715 5708 5701 5694 5687 5680 5673 5665 5658 5650 5641 5633 5624 5614 5605 5595 5585 5575 5566 5556 5547 5538 5529 5521 5513 5506 5500 5495 5491 5487 5483 5479 5475 5470 5466 5463 5459 5456 5452 5449 5445 5442 5440 5437 5435
5857 5855 5854 5853 5851 5848 5844 5841 5838 5836 5835 5832 5830 5827 5824 5822 5819 5816 5813 5809 5805 5801 5796 5792 5788 5784 5780 5775 5771 5765 5760 5755 5751 5748 5744 5739 5734 5731 5728 5724 5719 5712 5705 5698 5691 5684 5676 5669 5661 5654 5646 5637 5629 5620 5610 5601 5591 5581 5572 5563 5553 5544 5535 5527 5518 5511 5504 5497 5491 5486 5481 5477 5474 5470 5466 5462 5458 5454 5451 5448 5445 5441 5438 5435 5433 5430
5857 5856 5854 5853 5851 5847 5843 5839 5837 5836 5835 5832 5830 5827 5824 5821 5818 5814 5811 5807 5802 5798 5794 5790 5785 5781 5777 5772 5766 5761 5757 5753 5749 5746 5742 5737 5734 5731 5727 5722 5716 5709 5702 5696 5689 5681 5673 5666 5658 5650 5642 5634 5625 5616 5607 5598 5588 5579 5569 5560 5551 5542 5533 5524 5516 5508 5500 5494 5488 5482 5477 5473 5469 5466 5462 5458 5454 5451 5447 5444 5441 5437 5434 5431 5428 5426
5858 5857 5855 5853 5850 5846 5841 5839 5837 5836 5834 5832 5830 5827 5824 5821 5817 5813 5809 5805 5801 5796 5792 5788 5784 5779 5774 5769 5763 5759 5755 5751 5748 5745 5740 5737 5734 5730 5724 5719 5713 5706 5700 5693 5685 5678 5670 5662 5655 5647 5638 5630 5622 5613 5604 5595 5586 5576 5567 5558 5548 5539 5531 5522 5514 5505 5498 5491 5484 5479 5474 5470 5466 5463 5459 5455 5452 5448 5445 5441 5438 5434 5431 5428 5424 5421
5859 5857 5855 5853 5849 5844 5841 5839 5837 5836 5834 5831 5829 5827 5824 5820 5816 5811 5807 5803 5799 5795 5791 5787 5783 5778 5773 5767 5761 5757 5754 5751 5748 5744 5740 5737 5733 5728 5722 5716 5711 5705 5698 5690 5682 5675 5667 5659 5651 5643 5635 5627 5619 5610 5601 5592 5583 5574 5565 5556 5547 5538 5529 5520 5512 5503 5495 5488 5482 5476 5471 5467 5464 5460 5456 5453 5449 5446 5442 5439 5435 5431 5428 5424 5421 5417
5859 5857 5855 5852 5848 5844 5842 5840 5838 5837 5834 5832 5829 5826 5823 5819 5814 5809 5805 5801 5797 5793 5789 5785 5780 5774 5769 5764 5760 5757 5754 5752 5748 5743 5740 5736 5731 5725 5720 5714 5709 5703 5695 5687 5680 5672 5664 5656 5648 5641 5633 5625 5616 5608 5599 5590 5582 5573 5564 5554 5545 5535 5526 5518 5510 5501 5493 5486 5480 5474 5469 5464 5461 5457 5454 5450 5447 5444 5440 5436 5433 5429 5425 5421 5417 5413
5859 5857 5854 5851 5847 5845 5842 5840 5839 5837 5834 5832 5829 5826 5822 5817 5812 5808 5804 5800 5796 5792 5788 5783 5777 5771 5767 5763 5761 5758 5755 5751 5746 5742 5738 5734 5729 5724 5718 5713 5707 5700 5692 5685 5677 5669 5661 5653 5646 5638 5631 5622 5614 5605 5597 5589 5580 5571 5561 5552 5543 5533 5524 5516 5508 5499 5491 5484 5478 5472 5466 5462 5458 5454 5451 5448 5444 5441 5437 5433 5429 5426 5421 5417 5413 5409
5859 5856 5853 5850 5847 5845 5843 5840 5839 5837 5834 5832 5829 5825 5821 5816 5811 5806 5801 5797 5793 5790 5786 5782 5777 5772 5768 5766 5763 5759 5755 5750 5745 5741 5737 5732 5727 5722 5716 5710 5704 5697 5689 5682 5675 5667 5658 5651 5643 5636 5628 5620 5612 5604 5596 5587 5578 5569 5559 5550 5541 5532 5523 5515 5506 5498 5490 5483 5476 5470 5465 5460 5456 5452 5448 5445 5441 5438 5434 5430 5426 5422 5417 5413 5409 5405
5858 5856 5853 5850 5848 5845 5843 5840 5838 5836 5833 5830 5827 5822 5818 5813 5808 5804 5801 5797 5794 5790 5785 5780 5776 5773 5771 5767 5763 5759 5754 5749 5744 5740 5735 5730 5725 5719 5713 5707 5700 5693 5687 5679 5671 5663 5655 5648 5640 5633 5625 5617 5609 5601 5593 5584 5575 5566 5558 5548 5539 5531 5522 5513 5505 5496 5488 5481 5475 5469 5463 5459 5454 5450 5447 5443 5439 5435 5431 5426 5422 5417 5413 5408 5404 5399
5858 5855 5852 5850 5847 5845 5842 5839 5837 5834 5831 5828 5824 5820 5815 5810 5806 5803 5800 5797 5794 5790 5785 5780 5776 5772 5768 5764 5761 5757 5752 5747 5743 5738 5733 5727 5721 5715 5709 5703 5697 5690 5683 5675 5667 5659 5652 5645 5637 5630 5622 5615 5607 5599 5590 5582 5573 5565 5556 5547 5538 5529 5520 5511 5503 5495 5487 5480 5473 5467 5462 5457 5453 5449 5445 5441 5436 5432 5427 5423 5418 5413 5409 5404 5399 5394
5857 5854 5851 5849 5846 5844 5841 5839 5836 5833 5830 5826 5823 5818 5814 5809 5805 5801 5798 5795 5793 5788 5784 5780 5777 5772 5768 5764 5760 5755 5750 5745 5740 5735 5730 5724 5718 5712 5707 5701 5694 5687 5679 5671 5663 5656 5649 5642 5634 5627 5620 5612 5604 5596 5588 5580 5572 5563 5554 5545 5536 5527 5518 5509 5501 5493 5486 5479 5472 5466 5461 5456 5452 5448 5443 5439 5434 5429 5424 5419 5414 5409 5404 5399 5394 5389
5856 5853 5851 5848 5846 5843 5841 5838 5836 5833 5829 5825 5821 5816 5812 5808 5804 5801 5797 5793 5790 5786 5782 5779 5777 5773 5769 5764 5759 5754 5748 5743 5737 5732 5727 5722 5716 5710 5705 5698 5691 5683 5675 5668 5661 5654 5647 5639 5632 5626 5619 5611 5603 5594 5586 5578 5570 5562 5553 5544 5534 5525 5516 5508 5500 5492 5485 5478 5471 5465 5460 5455 5451 5446 5442 5437 5432 5426 5421 5415 5410 5405 5400 5395 5390 5384
5856 5853 5850 5848 5845 5843 5840 5837 5835 5832 5828 5824 5819 5815 5810 5807 5804 5800 5796 5792 5789 5786 5782 5777 5772 5768 5765 5761 5757 5751 5746 5740 5735 5730 5724 5719 5714 5709 5702 5695 5686 5679 5672 5665 5659 5652 5645 5638 5632 5625 5618 5610 5601 5593 5584 5576 5568 5559 5550 5542 5533 5524 5515 5507 5499 5491 5483 5477 5470 5465 5459 5454 5449 5444 5439 5434 5428 5423 5418 5412 5406 5400 5395 5390 5385 5379
5855 5853 5850 5848 5845 5842 5839 5836 5833 5830 5826 5822 5818 5813 5809 5805 5802 5798 5794 5791 5787 5784 5782 5776 5770 5765 5762 5758 5753 5748 5743 5738 5734 5728 5723 5718 5712 5706 5699 5691 5683 5676 5669 5663 5656 5650 5643 5638 5631 5624 5616 5607 5599 5591 5583 5575 5566 5557 5548 5540 5531 5522 5513 5505 5497 5489 5482 5475 5469 5463 5458 5453 5447 5442 5436 5431 5425 5420 5414 5408 5402 5396 5391 5385 5380 5374
5855 5852 5850 5847 5844 5841 5838 5835 5832 5828 5824 5820 5816 5812 5808 5804 5800 5796 5792 5788 5783 5779 5777 5774 5769 5764 5759 5755 5750 5745 5740 5736 5732 5727 5721 5716 5711 5704 5696 5688 5681 5674 5668 5662 5655 5648 5642 5636 5629 5622 5613 5605 5597 5589 5582 5573 5565 5556 5547 5538 5530 5521 5512 5503 5495 5488 5481 5474 5468 5462 5457 5451 5445 5439 5434 5428 5422 5416 5410 5404 5398 5392 5386 5380 5375 5369
5854 5852 5849 5846 5844 5841 5838 5834 5831 5827 5822 5818 5814 5810 5806 5802 5798 5795 5791 5787 5782 5777 5773 5769 5766 5762 5758 5753 5748 5743 5738 5733 5729 5724 5720 5715 5709 5701 5693 5686 5679 5672 5666 5660 5653 5647 5641 5634 5627 5619 5611 5603 5595 5588 5580 5572 5564 5555 5546 5538 5529 5520 5511 5503 5494 5487 5480 5473 5467 5461 5455 5450 5444 5437 5431 5425 5419 5413 5406 5400 5394 5388 5382 5376 5370 5364
5854 5852 5849 5846 5843 5840 5837 5833 5830 5825 5821 5816 5812 5808 5805 5801 5797 5794 5790 5786 5781 5775 5770 5767 5764 5760 5756 5751 5745 5741 5737 5732 5727 5722 5718 5712 5706 5698 5690 5683 5676 5670 5664 5658 5651 5645 5639 5631 5624 5616 5609 5601 5594 5586 5578 5571 5563 5554 5545 5537 5528 5520 5511 5502 5494 5486 5479 5472 5466 5460 5454 5448 5441 5435 5429 5422 5416 5409 5403 5397 5391 5384 5378 5372 5365 5359
5853 5851 5849 5845 5842 5839 5836 5832 5828 5824 5820 5816 5812 5808 5803 5799 5796 5792 5788 5784 5780 5775 5770 5766 5764 5759 5753 5747 5743 5739 5734 5729 5723 5719 5714 5709 5702 5694 5687 5681 5675 5669 5662 5656 5650 5643 5636 5629 5622 5614 5607 5600 5592 5585 5577 5570 5562 5553 5545 5536 5528 5519 5510 5501 5492 5484 5477 5470 5464 5458 5452 5445 5439 5432 5426 5420 5413 5406 5400 5393 5387 5381 5374 5368 5361 5354
5853 5850 5848 5845 5842 5838 5834 5830 5826 5822 5819 5815 5811 5807 5802 5798 5794 5790 5786 5782 5780 5776 5770 5765 5762 5758 5752 5746 5741 5737 5732 5726 5721 5717 5712 5706 5699 5692 5685 5679 5673 5667 5660 5654 5648 5641 5634 5627 5620 5613 5606 5599 5591 5584 5576 5569 5561 5552 5544 5536 5527 5518 5509 5500 5491 5483 5476 5469 5462 5456 5449 5443 5437 5430 5424 5417 5410 5404 5397 5390 5383 5377 5370 5364 5357 5350
5851 5848 5846 5844 5842 5839 5835 5831 5827 5823 5818 5814 5810 5806 5802 5797 5793 5789 5785 5781 5777 5774 5770 5764 5761 5758 5753 5747 5742 5737 5732 5728 5722 5717 5711 5705 5698 5691 5685 5679 5672 5665 5659 5653 5646 5640 5633 5626 5619 5612 5605 5598 5590 5583 5576 5568 5559 5551 5543 5535 5526 5517 5508 5499 5490 5482 5475 5468 5461 5454 5448 5441 5435 5428 5421 5414 5408 5401 5394 5387 5380 5373 5367 5360 5353 5346
5849 5846 5843 5840 5838 5835 5832 5828 5825 5821 5817 5812 5808 5804 5801 5797 5793 5788 5784 5779 5774 5771 5769 5763 5759 5757 5754 5750 5745 5739 5733 5728 5723 5717 5711 5704 5698 5691 5685 5678 5671 5665 5659 5652 5646 5640 5633 5626 5619 5612 5604 5597 5590 5582 5575 5567 5559 5550 5542 5534 5525 5516 5507 5498 5490 5482 5474 5467 5459 5453 5446 5439 5432 5426 5419 5412 5405 5398 5390 5383 5376 5370 5363 5356 5350 5343
5847 5844 5841 5838 5835 5832 5828 5824 5821 5818 5814 5810 5806 5802 5799 5795 5792 5787 5782 5777 5772 5770 5768 5762 5756 5752 5750 5747 5743 5738 5732 5727 5721 5715 5709 5703 5697 5691 5684 5678 5671 5665 5658 5652 5646 5639 5632 5625 5618 5611 5603 5596 5588 5581 5574 5566 5558 5549 5541 5532 5524 5515 5506 5498 5489 5481 5473 5466 5458 5451 5444 5438 5430 5423 5416 5409 5402 5394 5387 5380 5373 5366 5359 5353 5346 5339
5847 5844 5840 5837 5833 5831 5828 5823 5820 5816 5812 5808 5805 5801 5797 5794 5791 5786 5781 5775 5770 5766 5765 5761 5755 5749 5746 5743 5739 5734 5729 5724 5718 5712 5706 5700 5695 5689 5683 5677 5670 5664 5657 5651 5645 5638 5631 5624 5617 5610 5602 5595 5587 5580 5572 5564 5556 5548 5539 5531 5523 5514 5506 5498 5489 5481 5473 5465 5457 5450 5443 5435 5428 5421 5413 5406 5399 5391 5384 5377 5370 5363 5356 5349 5342 5335
5846 5843 5840 5836 5832 5828 5825 5822 5818 5814 5810 5806 5803 5799 5796 5792 5789 5784 5779 5774 5768 5764 5760 5757 5754 5748 5743 5740 5737 5731 5726 5721 5715 5709 5703 5698 5693 5687 5682 5676 5670 5663 5657 5651 5644 5637 5630 5623 5616 5609 5601 5594 5587 5579 5571 5563 5555 5547 5538 5530 5522 5514 5506 5497 5489 5480 5472 5465 5456 5449 5441 5434 5426 5419 5411 5404 5397 5390 5382 5375 5368 5361 5353 5346 5339 5331
5844 5841 5839 5836 5832 5827 5823 5820 5816 5813 5810 5805 5801 5798 5794 5790 5785 5782 5778 5773 5767 5763 5758 5755 5752 5749 5743 5738 5735 5730 5725 5719 5713 5707 5702 5696 5691 5686 5680 5675 5669 5663 5657 5650 5643 5636 5629 5622 5615 5608 5600 5593 5586 5578 5571 5563 5554 5546 5537 5529 5522 5513 5505 5497 5488 5480 5472 5464 5456 5448 5440 5432 5425 5417 5410 5403 5395 5388 5381 5373 5366 5359 5351 5344 5335 5328
5842 5839 5837 5835 5832 5827 5823 5819 5815 5811 5808 5804 5801 5797 5793 5788 5783 5779 5776 5771 5765 5761 5758 5754 5750 5748 5743 5738 5733 5729 5723 5717 5712 5707 5701 5696 5691 5685 5680 5674 5668 5662 5655 5648 5641 5634 5628 5621 5614 5606 5599 5592 5585 5577 5569 5561 5553 5545 5537 5529 5521 5513 5505 5496 5488 5480 5471 5463 5455 5447 5439 5431 5423 5416 5408 5401 5394 5387 5379 5372 5364 5356 5348 5341 5333 5325
5839 5836 5834 5832 5830 5826 5822 5819 5815 5810 5806 5803 5800 5796 5791 5787 5782 5778 5774 5769 5762 5759 5756 5752 5748 5745 5741 5737 5733 5728 5722 5717 5711 5706 5700 5695 5690 5684 5679 5673 5667 5661 5654 5647 5640 5633 5626 5619 5612 5605 5598 5591 5583 5576 5568 5560 5552 5544 5536 5528 5520 5512 5504 5496 5487 5479 5471 5462 5455 5447 5439 5431 5423 5415 5407 5400 5393 5386 5378 5370 5362 5354 5346 5338 5331 5322
5836 5834 5831 5829 5827 5824 5820 5817 5813 5809 5805 5802 5798 5794 5790 5786 5781 5776 5772 5767 5761 5757 5753 5750 5746 5742 5738 5734 5731 5727 5722 5716 5709 5704 5698 5693 5688 5682 5677 5672 5665 5659 5652 5645 5638 5631 5624 5618 5611 5603 5596 5589 5582 5575 5567 5559 5551 5543 5535 5527 5519 5511 5503 5495 5486 5478 5470 5462 5454 5446 5439 5431 5423 5415 5407 5400 5392 5385 5377 5369 5361 5353 5345 5336 5328 5319
5833 5830 5828 5825 5823 5821 5818 5815 5811 5806 5801 5798 5795 5791 5787 5783 5779 5774 5770 5764 5759 5756 5752 5748 5745 5740 5736 5732 5727 5723 5719 5713 5706 5701 5696 5690 5685 5680 5676 5670 5663 5657 5650 5643 5636 5630 5623 5616 5609 5602 5595 5588 5581 5573 5566 5558 5550 5542 5534 5526 5518 5510 5502 5494 5486 5477 5470 5462 5454 5446 5439 5431 5423 5415 5407 5400 5392 5384 5376 5368 5360 5351 5342 5334 5326 5317
5830 5827 5825 5822 5819 5817 5815 5812 5809 5805 5799 5794 5791 5788 5784 5780 5776 5773 5770 5764 5757 5754 5750 5746 5742 5737 5733 5729 5724 5719 5716 5711 5705 5699 5694 5689 5684 5679 5674 5668 5661 5655 5648 5642 5635 5628 5622 5615 5608 5601 5594 5587 5580 5572 5564 5557 5549 5541 5533 5525 5517 5509 5501 5493 5485 5477 5469 5461 5453 5445 5438 5431 5423 5416 5408 5400 5392 5383 5375 5367 5358 5350 5340 5331 5322 5314
5827 5824 5821 5818 5815 5813 5811 5808 5805 5802 5797 5792 5789 5785 5781 5777 5772 5770 5769 5764 5756 5751 5747 5743 5739 5735 5731 5727 5722 5717 5714 5710 5704 5698 5693 5688 5684 5679 5673 5666 5660 5653 5647 5640 5634 5627 5621 5614 5607 5600 5593 5585 5578 5571 5563 5555 5548 5539 5531 5524 5516 5508 5500 5493 5485 5477 5469 5461 5453 5445 5438 5431 5424 5416 5409 5401 5392 5383 5374 5365 5356 5348 5338 5329 5319 5310
5824 5821 5818 5814 5811 5809 5807 5805 5802 5799 5794 5790 5786 5782 5777 5773 5768 5765 5764 5762 5755 5749 5744 5741 5737 5733 5728 5724 5720 5715 5712 5709 5704 5698 5693 5688 5683 5678 5672 5665 5658 5652 5646 5640 5633 5626 5620 5613 5606 5599 5591 5584 5577 5570 5562 5554 5546 5538 5530 5523 5516 5508 5500 5492 5485 5477 5469 5461 5453 5445 5438 5431 5424 5416 5408 5400 5392 5383 5374 5364 5355 5345 5336 5327 5318 5308
5820 5817 5814 5810 5807 5803 5801 5799 5797 5795 5791 5786 5782 5778 5773 5769 5765 5761 5759 5757 5753 5746 5742 5738 5734 5730 5726 5722 5717 5713 5709 5707 5703 5697 5692 5687 5682 5676 5670 5664 5657 5651 5645 5638 5632 5625 5619 5612 5605 5597 5590 5583 5576 5568 5561 5553 5545 5537 5529 5522 5515 5508 5500 5492 5484 5476 5468 5461 5453 5445 5437 5430 5422 5415 5407 5399 5391 5382 5373 5364 5354 5344 5334 5325 5315 5305
5817 5814 5811 5807 5803 5799 5796 5794 5790 5787 5784 5781 5777 5774 5770 5765 5761 5757 5754 5753 5749 5743 5739 5735 5730 5726 5722 5718 5714 5710 5706 5703 5701 5696 5690 5685 5680 5674 5668 5662 5656 5649 5643 5637 5630 5624 5617 5610 5603 5596 5589 5581 5574 5568 5561 5553 5545 5537 5529 5522 5515 5507 5499 5492 5484 5476 5468 5460 5452 5445 5436 5428 5421 5414 5406 5398 5390 5381 5372 5363 5353 5343 5333 5323 5313 5303
5813 5811 5808 5803 5799 5796 5792 5790 5787 5783 5779 5775 5772 5769 5765 5762 5758 5753 5749 5747 5744 5738 5734 5731 5727 5723 5719 5715 5712 5708 5703 5699 5696 5693 5688 5683 5677 5671 5665 5659 5653 5647 5641 5635 5628 5622 5615 5609 5602 5595 5588 5580 5573 5566 5559 5552 5544 5537 5529 5521 5514 5507 5499 5491 5484 5476 5468 5460 5452 5444 5436 5428 5420 5413 5405 5397 5389 5380 5371 5362 5353 5343 5333 5323 5313 5303
5810 5807 5804 5800 5796 5792 5788 5785 5783 5781 5776 5771 5768 5765 5761 5758 5755 5750 5746 5742 5738 5734 5731 5727 5724 5720 5717 5713 5709 5706 5701 5697 5693 5689 5685 5680 5674 5669 5663 5657 5651 5644 5638 5632 5626 5619 5613 5607 5600 5593 5586 5579 5572 5565 5558 5551 5544 5536 5528 5521 5514 5507 5499 5492 5484 5476 5467 5459 5451 5443 5436 5428 5420 5413 5405 5397 5389 5380 5371 5362 5352 5343 5334 5324 5314 5305
5804 5803 5801 5796 5791 5788 5784 5780 5777 5776 5773 5768 5764 5762 5759 5755 5751 5748 5744 5740 5735 5731 5728 5725 5721 5717 5714 5711 5707 5703 5699 5695 5691 5687 5682 5677 5671 5666 5660 5654 5648 5642 5636 5630 5623 5617 5611 5605 5598 5591 5584 5577 5571 5564 5557 5550 5543 5535 5528 5521 5514 5507 5499 5492 5484 5476 5468 5459 5451 5443 5435 5428 5421 5413 5406 5398 5390 5381 5372 5362 5353 5343 5334 5325 5315 5305
5799 5797 5796 5792 5787 5783 5780 5776 5772 5769 5766 5763 5760 5758 5755 5752 5748 5745 5742 5739 5734 5729 5726 5723 5719 5715 5711 5708 5704 5700 5696 5692 5688 5684 5679 5674 5669 5663 5658 5652 5646 5639 5633 5627 5621 5615 5609 5603 5596 5589 5583 5576 5570 5563 5556 5549 5542 5535 5527 5520 5513 5506 5499 5492 5484 5476 5468 5459 5451 5442 5434 5427 5420 5414 5406 5399 5391 5382 5373 5364 5353 5344 5335 5326 5316 5306
5795 5793 5791 5788 5784 5780 5776 5773 5769 5765 5760 5757 5756 5755 5751 5747 5743 5740 5738 5735 5732 5727 5723 5720 5717 5712 5708 5705 5702 5697 5693 5689 5685 5681 5676 5671 5666 5661 5656 5650 5644 5638 5631 5625 5619 5613 5607 5601 5594 5588 5581 5575 5569 5562 5555 5548 5541 5534 5526 5519 5512 5505 5498 5491 5484 5476 5468 5460 5451 5442 5434 5426 5419 5413 5407 5400 5392 5383 5374 5365 5355 5345 5335 5326 5316 5308
5791 5789 5787 5784 5781 5778 5774 5770 5766 5763 5758 5752 5750 5751 5748 5743 5740 5736 5733 5730 5727 5723 5720 5716 5713 5709 5705 5701 5698 5694 5690 5686 5682 5678 5673 5669 5664 5659 5654 5648 5642 5636 5630 5623 5617 5611 5605 5599 5593 5586 5580 5574 5567 5561 5554 5547 5540 5533 5525 5518 5511 5504 5497 5490 5483 5476 5468 5460 5452 5443 5434 5426 5418 5411 5405 5399 5393 5385 5377 5367 5358 5348 5338 5328 5318 5309
5786 5783 5781 5779 5776 5775 5774 5769 5762 5758 5756 5750 5747 5746 5743 5739 5737 5733 5729 5726 5723 5719 5716 5713 5709 5706 5702 5698 5694 5691 5686 5682 5678 5674 5670 5666 5661 5656 5651 5646 5640 5634 5628 5622 5615 5609 5603 5597 5591 5585 5579 5572 5566 5560 5553 5546 5539 5532 5525 5517 5510 5503 5496 5489 5483 5476 5468 5460 5452 5444 5435 5427 5418 5410 5403 5396 5390 5384 5377 5368 5360 5350 5341 5331 5321 5310
5782 5778 5775 5772 5770 5770 5771 5766 5758 5754 5751 5747 5745 5743 5739 5735 5733 5729 5725 5722 5719 5715 5712 5709 5705 5702 5698 5694 5690 5687 5683 5678 5674 5671 5667 5662 5658 5654 5649 5643 5638 5632 5626 5620 5614 5607 5601 5595 5589 5583 5577 5571 5565 5558 5552 5545 5538 5531 5524 5516 5509 5502 5496 5489 5482 5475 5468 5460 5453 5444 5436 5428 5420 5411 5404 5396 5389 5382 5375 5368 5360 5352 5343 5334 5324 5313
5776 5773 5769 5765 5764 5765 5764 5760 5754 5750 5748 5744 5741 5738 5734 5731 5729 5726 5722 5718 5715 5711 5708 5705 5701 5698 5694 5690 5686 5683 5679 5675 5670 5667 5663 5659 5655 5651 5646 5641 5636 5630 5624 5618 5612 5606 5599 5593 5587 5581 5575 5569 5563 5556 5550 5544 5537 5530 5523 5516 5509 5502 5495 5489 5482 5475 5468 5461 5453 5445 5437 5429 5421 5413 5405 5397 5389 5383 5377 5369 5361 5352 5343 5334 5324 5314
5771 5767 5761 5757 5759 5761 5758 5752 5746 5743 5744 5743 5738 5733 5729 5726 5724 5722 5718 5714 5710 5707 5704 5701 5697 5694 5690 5687 5682 5679 5675 5671 5667 5664 5660 5656 5652 5648 5643 5638 5633 5627 5622 5616 5610 5604 5598 5591 5585 5579 5573 5568 5561 5555 5548 5542 5535 5529 5522 5515 5508 5502 5495 5489 5482 5475 5468 5461 5453 5446 5438 5430 5422 5414 5406 5397 5389 5382 5376 5370 5362 5352 5342 5332 5322 5312
5767 5762 5755 5751 5752 5753 5752 5747 5740 5735 5737 5739 5735 5729 5725 5721 5718 5717 5714 5709 5706 5703 5700 5697 5694 5689 5686 5682 5679 5675 5672 5668 5664 5660 5656 5652 5648 5644 5640 5635 5630 5625 5620 5614 5608 5602 5596 5590 5583 5577 5572 5566 5560 5553 5547 5540 5534 5527 5520 5513 5507 5501 5494 5488 5481 5475 5468 5461 5454 5446 5438 5430 5423 5415 5407 5400 5391 5381 5373 5366 5360 5353 5343 5332 5321 5311
5762 5757 5752 5747 5745 5744 5744 5741 5735 5730 5730 5730 5728 5724 5720 5716 5713 5712 5709 5705 5702 5699 5695 5693 5690 5686 5682 5679 5675 5671 5669 5664 5660 5657 5653 5649 5645 5641 5637 5632 5627 5622 5617 5611 5605 5600 5594 5588 5582 5576 5570 5564 5558 5551 5545 5539 5532 5525 5519 5512 5505 5499 5493 5487 5481 5474 5468 5461 5454 5446 5439 5431 5424 5416 5408 5401 5393 5385 5375 5365 5358 5351 5344 5335 5325 5314